SCP
0 0 1 1 1 1 1 0 0 0 0 0 0 0 0 0 0 0 0 0 0 0 0 0 0 0 0 0 0 0 0 0 0 0 0 0 0 0 0 0 0 0 0
0 0 1 1 1 1 1 0 0 0 0 0 0 0 0 0 0 0 0 0 0 0 0 0 0 0 0 0 0 0 0 0 0 0 0 0 0 0 0 0 0 0 0
0 0 1 1 1 1 1 0 0 0 0 0 0 0 0 0 0 0 0 0 0 0 0 0 0 0 0 0 0 0 0 0 0 0 0 0 0 0 0 0 0 0 0
0 0 0 0 0 1 0 0 0 0 0 0 0 0 0 0 0 0 0 0 0 0 0 0 0 0 0 0 0 0 0 0 0 0 0 0 0 0 0 0 0 0 0
0 0 0 0 0 1 0 0 0 0 0 0 0 0 0 0 0 0 0 0 0 0 0 0 0 0 0 0 0 0 0 0 0 0 0 0 0 0 0 0 0 0 0
0 0 0 1 1 1 0 0 0 0 0 0 0 0 0 0 0 0 0 0 0 0 0 0 0 0 0 0 0 0 0 0 0 0 0 0 0 0 0 0 0 0 0
0 0 1 1 1 1 0 0 0 0 0 0 0 0 0 0 0 0 0 0 0 0 0 0 0 0 0 0 0 0 0 0 0 0 0 0 0 0 0 0 0 0 0
0 1 1 1 1 1 1 0 0 0 0 0 0 0 0 0 0 0 0 0 0 0 0 0 0 0 0 0 0 0 0 0 0 0 0 0 0 0 0 0 0 0 0
1 1 1 1 1 1 1 0 0 0 0 0 0 0 0 0 0 0 0 0 0 0 0 0 0 0 0 0 0 0 0 0 0 0 0 0 0 0 0 0 0 0 0
1 1 1 1 1 1 1 0 0 0 0 0 0 0 0 0 0 0 0 0 0 0 0 0 0 0 0 0 0 0 0 0 0 0 0 0 0 0 0 0 0 0 0
1 1 1 1 1 1 0 0 0 0 0 0 0 0 0 0 0 0 0 0 0 0 0 0 0 0 0 0 0 0 0 0 0 0 0 0 0 0 0 0 0 0 0
1 1 1 1 0 0 0 0 0 0 0 0 0 0 0 0 0 0 0 0 0 0 0 0 0 0 0 0 0 0 0 0 0 0 0 0 0 0 0 0 0 0 0
0 0 0 0 0 0 0 0 0 0 0 0 0 0 0 0 0 0 0 0 0 0 0 0 0 0 0 0 0 0 0 0 0 0 0 0 0 0 0 0 0 0 0
0 0 0 0 0 0 0 0 0 0 0 0 0 0 0 0 0 0 0 0 0 0 0 0 0 0 0 0 0 0 0 0 0 0 0 0 0 0 0 0 0 0 0
0 0 0 1 1 0 0 0 0 0 0 0 0 0 0 0 0 0 0 0 0 0 0 0 0 0 0 0 0 0 0 0 0 0 0 0 0 0 0 0 0 0 0
0 0 1 1 1 1 1 0 0 0 0 0 0 0 0 0 0 0 0 0 0 0 0 0 0 0 0 0 0 0 0 0 0 0 0 0 0 0 0 0 0 0 0
0 0 1 1 1 1 1 0 0 0 0 0 0 0 0 0 0 0 0 0 0 0 0 0 0 0 0 0 0 0 0 0 0 0 0 0 0 0 0 0 0 0 0
0 0 1 1 1 1 1 0 0 0 0 0 0 0 0 0 0 0 0 0 0 0 0 0 0 0 0 0 0 0 0 0 0 0 0 0 0 0 0 0 0 0 0
0 0 0 1 1 0 0 0 0 0 0 0 0 0 0 0 0 0 0 0 0 0 0 0 0 0 0 0 0 0 0 0 0 0 0 0 0 0 0 0 0 0 0
0 0 0 1 0 0 0 0 0 0 0 0 0 0 0 0 0 0 0 0 0 0 0 0 0 0 0 0 0 0 0 0 0 0 0 0 0 0 0 0 0 0 0
0 0 0 0 0 0 0 0 0 0 0 0 0 0 0 0 0 0 0 0 0 0 0 0 0 0 0 0 0 0 0 0 0 0 0 0 0 0 0 0 0 0 0
0 0 0 0 0 0 0 0 0 0 0 0 0 0 0 0 0 0 0 0 0 0 0 0 0 0 0 0 0 0 0 0 0 0 0 0 0 0 0 0 0 0 0
0 0 0 0 0 0 0 0 0 0 0 0 0 0 0 0 0 0 0 0 0 0 0 0 0 0 0 0 0 0 0 0 0 0 0 0 0 0 0 0 0 0 0
0 0 0 0 0 0 0 0 0 0 0 0 0 0 0 0 0 0 0 0 0 0 0 0 0 0 0 0 0 0 0 0 0 0 0 0 0 0 0 0 0 0 0
0 0 0 0 0 0 0 0 0 0 0 0 0 0 0 0 0 0 0 0 0 0 0 0 0 0 0 0 0 0 0 0 0 0 0 0 0 0 0 0 0 0 0
0 0 0 0 0 0 0 0 0 0 0 0 0 0 0 0 0 0 0 0 0 0 0 0 0 0 0 0 0 0 0 0 0 0 0 0 0 0 0 0 0 0 0
Wind_Speed
5 7 13 14 14 14 14 14 13 11 10 9 9 9 10 10 8 6 7 7 8 8 6 6 8 9 10 7 6 5 4 2 3 5 5 5 6 6 6 7 4 2 5
9 7 13 14 15 14 15 14 13 12 10 9 9 9 9 8 6 6 6 6 7 6 5 5 6 6 7 6 3 2 2 1 2 2 4 5 7 8 8 6 5 3 4
11 8 11 13 14 14 15 14 13 12 11 10 9 8 8 7 7 8 7 6 5 4 4 3 4 4 4 3 2 1 1 2 1 3 5 3 5 9 10 8 6 6 5
12 9 9 13 14 15 15 14 13 12 10 9 8 6 6 6 7 8 9 8 6 4 3 1 1 2 3 4 4 4 4 3 3 5 3 3 5 8 10 9 8 7 7
10 9 10 14 15 15 15 14 12 11 10 8 7 4 3 2 3 7 9 9 9 6 4 1 1 3 4 5 6 6 7 6 5 5 4 4 5 8 9 10 9 9 9
9 8 10 15 15 15 15 13 12 11 10 8 7 5 3 2 2 5 9 9 9 7 4 2 2 4 5 6 7 8 9 8 5 4 4 4 4 10 11 11 11 10 10
9 8 10 15 16 16 15 13 12 12 11 9 8 7 5 4 4 3 9 9 8 6 4 3 4 5 7 8 9 9 9 8 4 4 4 4 5 11 13 14 13 12 12
11 9 9 15 16 16 14 13 12 12 11 10 8 7 6 4 3 2 8 9 7 5 4 4 5 7 8 9 10 10 9 7 6 4 4 5 10 14 15 16 14 13 14
11 10 8 9 11 14 13 12 11 11 10 10 8 6 6 4 2 2 6 6 5 4 4 5 7 9 9 9 10 10 9 8 6 5 6 5 11 15 16 15 16 15 15
9 10 9 8 8 7 8 10 10 9 9 10 9 7 7 5 4 3 3 5 5 6 6 8 9 10 10 10 11 12 10 9 6 6 5 7 15 16 16 16 16 16 15
8 8 10 9 8 7 7 8 9 9 10 10 8 8 6 3 3 3 6 8 9 9 9 10 10 11 9 9 11 12 9 4 5 5 5 12 17 17 17 17 17 16 16
12 11 9 10 10 8 7 5 4 4 5 5 4 4 3 2 3 4 7 10 10 9 9 10 11 10 8 4 7 9 4 6 5 5 6 15 18 19 19 19 18 18 18
10 10 11 10 9 8 5 5 3 3 3 4 5 4 3 2 2 2 2 3 4 5 4 6 6 4 4 3 4 4 5 5 3 4 6 15 17 19 20 20 19 19 19
8 9 11 11 8 7 6 5 4 3 3 3 4 4 3 2 1 1 1 1 1 1 2 2 2 4 4 5 4 5 5 4 3 3 5 11 15 17 18 19 20 19 19
11 11 10 11 10 8 7 5 4 4 4 3 3 4 5 3 2 2 2 3 3 3 3 4 4 5 5 6 5 6 6 6 6 5 4 10 14 17 19 19 20 20 19
10 11 9 10 10 9 6 5 4 4 4 3 3 3 4 3 4 4 4 5 5 4 4 4 5 5 4 5 6 7 6 6 5 6 5 7 13 15 17 19 20 20 20
7 9 9 10 10 9 8 6 5 4 5 5 5 6 7 6 7 5 5 5 4 4 4 4 5 5 5 6 7 7 6 6 6 6 6 5 6 10 17 21 22 23 24
6 7 8 9 10 9 7 7 5 6 7 7 6 7 9 8 7 6 5 4 4 4 5 4 5 5 5 5 5 5 5 5 6 6 5 5 5 6 11 19 21 22 22
6 7 7 9 10 9 9 9 9 8 8 7 6 6 7 7 7 6 5 4 5 5 5 4 4 3 4 6 5 5 5 3 3 5 5 6 5 6 5 11 18 18 19
5 6 8 10 11 12 10 10 9 9 7 6 6 6 7 6 7 6 5 5 5 4 5 4 4 3 2 4 5 6 5 2 2 6 6 6 5 7 6 7 8 10 19
6 7 8 12 12 11 9 8 8 6 5 5 5 7 7 7 7 6 5 5 5 4 4 4 3 4 3 4 3 5 5 4 3 7 5 7 8 11 11 11 9 7 9
6 8 9 11 11 11 8 6 5 5 4 4 4 6 7 7 6 6 6 4 4 4 6 5 4 3 3 4 3 3 5 6 5 7 4 6 7 11 9 11 9 7 6
8 8 9 10 11 11 11 9 8 6 4 4 4 4 5 6 7 6 6 5 5 4 4 4 4 3 2 3 3 4 3 5 8 4 4 3 6 6 6 7 7 6 7
7 8 10 11 11 11 10 10 11 7 5 4 3 3 5 6 6 6 6 5 4 3 3 3 3 2 3 3 3 2 1 3 4 7 5 5 6 6 7 7 7 5 7
8 8 9 10 10 9 8 10 9 6 4 4 5 6 5 5 5 5 5 4 3 3 3 3 4 4 3 2 2 3 2 2 3 5 10 7 7 6 6 6 5 5 7
8 8 8 10 8 8 9 9 9 9 8 8 6 5 4 3 3 4 4 3 3 3 3 3 4 4 3 3 3 3 3 3 5 5 9 11 8 6 7 6 5 6 6
Wind_Direction
172 173 172 170 170 161 149 144 139 132 130 128 121 128 127 120 117 114 115 104 89 73 43 13 14 25 45 71 102 115 124 102 50 18 334 301 289 272 255 232 197 286 252
159 168 164 163 164 162 152 147 142 136 135 135 134 137 136 130 129 129 124 105 86 71 38 17 8 11 28 35 51 121 180 200 37 336 299 295 292 277 258 198 202 234 269
154 164 163 165 168 162 153 151 148 145 143 144 150 155 157 159 145 142 135 115 100 83 58 27 4 357 2 355 355 327 306 264 241 269 287 298 282 269 251 219 233 240 256
157 162 164 169 169 163 156 156 155 154 154 157 159 149 157 175 176 166 156 146 148 142 121 64 359 342 322 310 300 303 309 309 241 255 279 285 285 265 235 224 237 245 247
159 165 169 171 169 165 162 161 161 161 163 166 167 150 150 172 198 188 173 168 166 161 156 161 328 323 319 314 306 300 289 283 247 262 284 294 289 274 238 240 249 252 253
163 168 170 170 171 168 167 166 167 169 171 173 175 166 137 60 322 214 191 179 170 165 172 201 282 300 300 297 294 290 285 283 256 269 291 295 284 278 267 252 249 252 255
167 171 172 171 169 167 170 171 174 179 180 176 176 172 140 78 37 153 179 180 177 181 200 242 295 313 310 300 295 287 282 283 267 254 270 278 279 282 278 270 259 257 261
163 166 172 172 166 169 173 175 178 186 185 176 177 174 156 120 62 115 171 175 188 213 244 275 293 302 303 300 297 295 293 282 271 258 254 262 274 280 278 277 273 265 265
158 161 165 167 168 171 174 176 183 190 180 170 171 169 160 160 144 130 170 180 205 236 266 285 286 286 287 287 287 286 286 278 263 255 262 257 271 276 273 271 274 271 264
162 167 168 168 169 169 171 180 182 178 169 165 164 164 170 187 209 212 193 210 226 241 259 269 272 273 276 279 280 279 278 277 260 252 253 262 269 272 275 274 273 273 271
179 180 174 175 176 172 173 181 175 171 172 170 173 185 181 194 236 240 228 227 227 237 252 261 265 270 275 276 277 279 285 265 257 256 253 261 269 275 277 276 276 277 275
190 190 181 182 182 176 180 170 166 166 174 176 183 197 189 202 230 217 221 223 231 244 261 274 280 283 283 276 277 282 273 268 261 255 258 269 278 283 282 284 282 278 275
193 186 186 186 183 176 171 160 165 167 177 191 196 201 193 200 247 225 237 261 271 284 290 297 302 300 296 288 286 285 278 275 263 260 264 275 287 295 298 299 295 288 283
196 191 180 185 181 172 164 161 165 172 181 197 208 202 174 168 194 270 287 297 302 298 297 312 329 345 355 351 339 327 321 318 301 287 281 289 304 314 315 313 309 303 296
194 192 176 171 169 159 152 149 153 164 175 182 172 170 155 136 122 89 58 43 28 25 29 29 22 20 15 4 358 353 345 342 340 337 322 322 328 331 330 328 326 319 310
193 185 168 159 155 149 146 142 134 136 144 137 123 122 111 102 93 77 58 45 34 32 41 45 31 24 12 3 357 351 343 342 343 340 338 343 347 350 1 3 3 3 358
179 167 161 154 145 142 140 132 122 115 107 90 78 72 74 77 82 82 67 50 31 28 35 40 26 23 19 7 350 340 338 341 343 344 354 360 353 358 2 7 12 11 10
134 143 158 153 142 136 130 119 105 95 95 90 84 78 76 77 82 78 66 48 35 38 34 36 23 13 11 357 336 324 325 336 342 355 356 354 354 1 359 14 13 6 5
133 132 138 141 137 125 111 104 99 95 91 91 86 82 79 76 76 77 66 48 44 43 32 28 26 21 2 345 320 313 314 337 352 359 350 357 359 358 355 3 3 358 1
132 129 131 133 124 116 110 107 101 90 85 81 84 84 82 74 71 73 64 49 48 48 32 23 12 2 358 335 315 313 305 336 24 5 5 2 2 1 353 355 358 351 355
118 123 130 131 129 125 124 122 116 106 97 85 79 79 76 73 68 65 59 46 45 53 42 27 9 356 346 340 338 321 324 337 18 9 0 359 360 357 351 356 349 347 348
120 119 122 127 129 128 128 122 116 114 100 86 80 70 70 71 66 67 62 54 42 43 34 26 20 4 345 4 359 347 343 335 345 332 339 359 356 347 337 343 331 342 347
125 130 131 131 129 126 125 120 113 94 84 79 77 71 66 73 69 68 66 63 49 46 32 15 15 27 353 343 16 57 7 320 315 303 341 330 341 324 323 318 321 330 340
135 132 132 133 131 132 133 134 133 130 133 140 128 103 77 69 70 66 63 57 48 39 25 359 15 8 21 2 358 46 220 251 303 310 311 310 309 312 301 310 312 311 326
132 129 130 129 130 131 126 126 122 117 117 114 108 101 84 68 66 65 63 55 42 27 10 3 5 12 21 13 349 330 322 283 240 273 298 306 309 301 294 293 294 304 305
123 122 125 125 126 127 123 122 125 127 126 122 121 117 102 78 56 50 55 48 31 12 358 351 354 0 358 351 334 322 311 298 302 291 297 304 298 289 282 280 283 290 292